Weather in Cayo Ensenachos

Cuba     22°38′40″N   79°05′18″W
temp.,
°C
wind,
m/s
gust,
m/s
humid.,
%
clouds,
%
prec.,
mm/h
press.,
hPa
HPBL,
m
13 april, tue
tue1323:00+26n468155 0.6 1014177
02:00+25nne448389 0.8 1013325
05:00+26ne44780 0.3 1013350
08:00+25ne77760 0.5 1015635
11:00+25ne98690 0.1 1017748
14:00+25ne77610 0.1 1016892
17:00+25ene66570 0.0 1015919
20:00+25ene67620 0.0 1016842
14 april, wed
wed1423:00+25ene910540 0.0 1017950
02:00+25ene810580 0.0 1016908
05:00+25ene89600 0.0 1016959
08:00+25ene78620 0.0 1019985
11:00+25ene78640 0.0 10191027
14:00+25e88695 0.0 10171005
17:00+25ene89705 0.0 1016955
20:00+25ene89700 0.0 1017920
15 april, thu
thu1523:00+24e88700 0.0 1018926
02:00+24e77710 0.0 1016851
05:00+24e77710 0.0 1015835
08:00+24e77715 0.0 1016915
11:00+24ese77715 0.0 1016985
14:00+25e77691 0.0 1015736
17:00+25e88702 0.0 1013490
20:00+25e88700 0.0 1013495
16 april, fri
fri1623:00+25ese77710 0.0 1015601
02:00+24se66720 0.0 1014658
05:00+24sse55740 0.0 1013544
08:00+23sse55774 0.0 1014406
11:00+24se45710 0.0 1014366
14:00+25e66690 0.0 1012273
17:00+26ene89700 0.0 1010331
20:00+25ese89760 0.0 1012372
17 april, sat
sat1723:00+26ese78754 0.0 1014477
02:00+25sse88750 0.0 1013390
05:00+25sse66732 0.0 1013376
08:00+24sse66730 0.0 1014316
11:00+25se45700 0.0 1015271
14:00+26e77720 0.0 1013184
17:00+26e78820 0.0 1011216
20:00+26e810850 0.0 1013235